Location: College Rock
(37.2713°N, 119.1740°W)
Time: 14:54:27
(UTC+00:00)

Daily predictions for brighter satellites

Satellite Brightness Start Highest point End
(mag) Time Altitude Azimuth Time Altitude Azimuth Time Altitude Azimuth
Cosmos 44 Rocket 4.2 12:10:28 40° S 12:10:28 40° S 12:13:54 10° SSE
ERS-2 3.7 12:06:01 10° SE 12:09:18 34° ENE 12:10:47 24° NNE
Nadezhda 4 Rocket 3.8 12:03:45 10° S 12:09:51 86° W 12:16:02 10° N
CZ-4B R/B 3.7 12:07:11 10° SE 12:10:03 24° ENE 12:12:53 10° NNE
Cosmos 2082 Rocket 2.0 12:09:55 56° SSW 12:11:11 90° NE 12:16:49 10° NNE
Cosmos 2369 4.0 12:08:19 20° NNW 12:12:17 65° ENE 12:17:51 10° SSE
Meteor 1-24 Rocket 4.1 12:09:05 10° S 12:14:34 63° E 12:20:19 10° NNE
Lacrosse 5 rocket 3.8 12:18:45 10° N 12:18:45 10° N 12:18:52 10° N
DELTA 2 R/B (1) 4.2 12:19:26 38° SSW 12:19:26 38° SSW 12:24:21 10° SE
Cosmos 2180 Rocket 4.5 12:14:03 10° NNW 12:20:05 54° W 12:26:02 10° SSW
Cosmos 1892 Rocket 4.3 12:17:54 10° S 12:22:05 51° E 12:26:21 10° NNE
ALOS 2.5 12:22:46 10° NNE 12:27:26 68° E 12:32:04 10° S
Cosmos 1697 Rocket 2.6 12:31:55 25° NNW 12:35:15 68° WSW 12:40:51 10° S
Abrixas rocket 3.6 12:38:21 25° NNE 12:38:21 25° NNE 12:40:44 10° E
ISS -1.1 12:41:10 11° N 12:41:10 11° N 12:41:37 10° N
FENGYUN 3A 3.6 12:36:44 10° NNE 12:42:12 84° WNW 12:47:37 10° SSW
ARGOS Delta rocket 4.5 12:40:01 10° NNE 12:45:29 69° E 12:50:55 10° S
ATLAS CENTAUR R/B 2.9 12:42:01 10° S 12:45:39 34° ESE 12:49:08 10° NE
ATLAS 3B R/B 3.0 12:44:55 32° W 12:47:08 41° NW 12:53:20 10° NNE
ADEOS 3.5 12:43:35 10° N 12:48:47 69° WNW 12:53:58 10° SSW
ADEOS Rocket 3.2 12:44:58 10° SSW 12:50:01 37° W 12:55:09 10° NNW
Cosmos 1400 Rocket 2.7 12:46:39 10° N 12:50:34 82° E 12:54:26 10° S
Cosmos 1300 2.5 12:46:58 10° NNW 12:50:46 72° W 12:54:33 10° S
Meteor 2-5 Rocket 4.0 12:46:15 10° SSW 12:51:40 46° WNW 12:57:15 10° N
Cosmos 1428 Rocket 4.4 12:47:08 10° S 12:53:23 89° W 12:59:36 10° N
Aureole 3 4.1 12:52:01 10° N 12:56:37 77° E 13:02:31 10° S
Cosmos 1980 Rocket 2.1 12:53:04 10° NNW 12:58:42 84° WSW 13:04:17 10° SSE
SL-14 R/B 4.5 13:02:57 24° NW 13:02:57 24° NW 13:05:21 10° NNW
CZ-4B R/B 3.8 12:58:13 10° N 13:02:16 62° WNW 13:06:08 10° SSW
Cosmos 2228 3.4 12:59:46 10° NNW 13:03:51 39° W 13:07:56 10° SSW
Cosmos 1726 Rocket 3.6 12:59:41 10° NNW 13:04:03 55° W 13:08:24 10° S
Cosmos 1992 Rocket 4.1 13:00:03 10° NNW 13:05:05 51° WSW 13:10:06 10° S
Cosmos 2026 Rocket 4.0 13:00:17 10° SSW 13:06:36 67° W 13:12:58 10° N
CZ-2C R/B 4.0 13:13:57 10° NNW 13:16:07 15° NW 13:16:07 15° NW
Meteor PRIRODA 3.6 13:13:51 10° NNE 13:17:32 89° WNW 13:21:12 10° SSW
H-2A R/B 4.1 13:14:12 10° NNE 13:17:52 43° E 13:21:33 10° S
Meteor 2-10 Rocket 3.8 13:13:26 10° N 13:18:28 69° E 13:23:35 10° SSE
Cosmos 614 Rocket 4.1 13:13:33 10° SW 13:18:33 51° WNW 13:23:33 10° N
Cosmos 1606 Rocket 4.4 13:16:32 10° NNW 13:20:20 28° W 13:24:07 10° SSW
Cosmos 1484 Rocket 3.8 13:18:28 10° NNW 13:21:34 24° WNW 13:24:37 10° SW
X-37B 4.1 13:22:47 10° SE 13:23:14 10° SE 13:23:41 10° SE
Cosmos 1315 Rocket 3.3 13:20:03 10° N 13:24:09 65° E 13:28:15 10° SSE
Cosmos 1689 Rocket 1.9 13:22:01 10° S 13:24:55 72° WSW 13:27:50 10° NNW
COSMO-SKYMED 1 2.5 13:23:06 10° S 13:27:25 71° WSW 13:31:45 10° NNW
Cosmos 1833 Rocket 4.4 13:29:06 11° WNW 13:30:07 12° NW 13:32:12 10° NNW
Cosmos 2322 Rocket 3.5 13:26:16 10° N 13:31:36 40° ENE 13:36:52 10° SE
Cosmos 2278 4.1 13:26:32 10° NW 13:31:47 41° WSW 13:37:01 10° S
Uosat 12 SS-18 rocket 4.1 13:26:55 10° SW 13:31:51 77° WNW 13:36:15 10° NNE
SAR-Lupe-4 4.3 13:32:23 10° SSW 13:35:35 31° W 13:38:48 10° NW
SJ-12 4.4 13:32:24 10° N 13:36:12 37° WNW 13:39:58 10° SW
Cosmos 1455 2.4 13:34:20 10° N 13:38:13 75° E 13:42:04 10° SSE
H-2A R/B 3.1 13:36:59 10° NNE 13:41:17 64° ESE 13:45:22 10° S
Cosmos 1023 Rocket 4.5 13:36:54 10° SSW 13:41:54 59° WNW 13:46:56 10° N
CZ-4B R/B 3.1 13:40:08 10° SW 13:42:15 15° W 13:44:22 10° WNW
ERS-2 4.0 13:41:19 10° WSW 13:42:56 13° W 13:44:34 10° WNW
Meteor 1-31 Rocket 4.3 13:44:03 10° NNW 13:46:43 18° WNW 13:49:23 10° WSW
Cosmos 2292 Rocket 2.9 13:48:55 10° SSW 13:51:56 56° W 13:55:31 10° N
CREW DRAGON DEMO-1 DEB 3.8 13:49:16 10° NW 13:52:09 41° NE 13:55:01 10° ESE
Cosmos 1703 3.2 13:48:24 10° S 13:52:16 79° W 13:56:10 10° N
CZ-4B R/B 4.5 13:47:26 10° NNE 13:52:33 46° E 13:57:34 10° S
SJ-7 4.3 13:49:51 10° N 13:53:51 73° WNW 13:57:47 10° SSW
Cosmos 1758 Rocket 4.1 13:49:29 10° S 13:53:55 68° E 13:58:23 10° NNE
Cosmos 1190 Rocket 4.2 13:49:08 10° SW 13:54:11 48° WNW 13:59:14 10° N
Cosmos 2082 Rocket 3.9 13:53:33 10° WNW 13:56:02 13° NW 13:58:32 10° NNW
